• MPC Preparation (Info)

  • MPEC 2022-P41 : 2022 PD

    The following Minor Planet Electronic Circular may be linked-to from your own Web pages, but must not otherwise be redistributed electronically.

    A form allowing access to any MPEC is at the bottom of this page.


    Read MPEC 2022-P40 Read MPEC 2022-P42


    M.P.E.C. 2022-P41                                Issued 2022 August 3, 11:56 UT
    
         The Minor Planet Electronic Circulars contain information on unusual
             minor planets and routine data on comets.  They are published
        on behalf of Division F of the International Astronomical Union by the
              Minor Planet Center, Smithsonian Astrophysical Observatory,
                              Cambridge, MA 02138, U.S.A.
    
                 Prepared using the Tamkin Foundation Computer Network
    
                                  MPC@CFA.HARVARD.EDU
                URL https://www.minorplanetcenter.net/    ISSN 1523-6714
    
                                     2022 PD                                 
    
    
    Observations:
         K22P00D* C2022 08 01.53705701 41 33.604+08 28 57.21         20.79wUEP041F52
         K22P00D  C2022 08 01.54976501 41 19.935+08 28 56.40         20.44GVEP041F52
         K22P00D  C2022 08 01.56245701 41 06.463+08 28 55.61         20.43GVEP041F52
         K22P00D  C2022 08 01.57529601 40 52.754+08 28 54.57         20.40wUEP041F52
         K22P00D 1C2022 08 02.07869 01 32 47.92 +08 26 12.8          20.7 VXEP041033
         K22P00D 1C2022 08 02.07951 01 32 47.15 +08 26 12.6          20.6 VXEP041033
         K22P00D 1C2022 08 02.08034 01 32 46.34 +08 26 12.5          21.0 VXEP041033
         K22P00D ^C2022 08 02.53786401 26 03.486+08 25 38.63         20.74GVEP041568
         K22P00D ^C2022 08 02.53915901 26 02.318+08 25 38.42         20.46GVEP041568
         K22P00D ^C2022 08 02.54015201 26 01.424+08 25 38.25         20.75GVEP041568
         K22P00D ^C2022 08 02.54113801 26 00.541+08 25 38.05         20.86GVEP041568
         K22P00D KC2022 08 03.02083401 19 30.46 +08 22 25.5          20.1 GXEP041I93
         K22P00D KC2022 08 03.02128801 19 29.06 +08 22 26.5          20.7 GVEP041L01
         K22P00D KC2022 08 03.02322001 19 27.52 +08 22 25.9          20.9 GVEP041L01
         K22P00D KC2022 08 03.02509901 19 27.08 +08 22 24.6          20.1 GXEP041I93
         K22P00D KC2022 08 03.02515201 19 25.98 +08 22 25.7          20.7 GVEP041L01
         K22P00D KC2022 08 03.02708201 19 24.33 +08 22 25.3          20.6 GVEP041L01
         K22P00D KC2022 08 03.02901201 19 22.82 +08 22 24.2          20.8 GVEP041L01
         K22P00D KC2022 08 03.02925201 19 23.74 +08 22 23.5          20.7 GXEP041I93
         K22P00D KC2022 08 03.34542601 15 20.72 +08 21 02.9          20.6 VuEP041H21
         K22P00D KC2022 08 03.34822301 15 18.55 +08 21 02.3          20.4 VuEP041H21
         K22P00D KC2022 08 03.35101901 15 16.35 +08 21 01.7          20.5 VuEP041H21
         K22P00D KC2022 08 03.35372401 15 14.24 +08 21 01.0          20.5 VuEP041H21
         K22P00D KC2022 08 03.35512301 15 13.13 +08 21 00.7          20.6 VuEP041H21
    
    Observer details:
    033 Karl Schwarzschild Observatory, Tautenburg.  Observers S. Melnikov, C.
        Hoegner, U. Laux, F. Ludwig, B. Stecklum.  Measurer B. Stecklum.  1.34-m
        f/3 Schmidt + CCD.
    568 Mauna Kea.  Observers R. Wainscoat, L. Wells, H. Flewelling.  Measurers R.
        Weryk, R. Wainscoat.  3.6-m Canada-France-Hawaii Telescope + CCD.
    F52 Pan-STARRS 2, Haleakala.  Observers J. Bulger, T. Lowe, A. Schultz, I.
        Smith, K. Chambers, T. Dukes.  Measurers K. Chambers, S. Chastel, T. de
        Boer, J. Fairlamb, H. Gao, M. Huber, C.-C. Lin, E. Magnier, Y.
        Ramanjooloo, R. Wainscoat, R. Weryk.  1.8-m Ritchey-Chretien + CCD.
    H21 Astronomical Research Observatory, Westfield.  Observer R. Holmes.
        Measurers T. Linder, R. Holmes, L. Horn.  0.76-m f/3.0 astrograph + CCD.
    I93 St Pardon de Conques.  Observer F. Losse.  0.40-m f/3.7 reflector + CCD.
    L01 Visnjan Observatory, Tican.  Observer K. Korlevic.  1.0-m f/2.9 reflector
        + CCD.
    
    Orbital elements:
    2022 PD                                                  Earth MOID = 0.0046 AU
    Epoch 2022 Aug. 9.0 TT = JDT 2459800.5                  Veres                   
    M   8.55279              (2000.0)            P               Q                  
    n   0.22941445     Peri.  319.37491     +0.05208876     +0.99772036             
    a   2.6427467      Node   313.56342     -0.90021816     +0.02831282             
    e   0.6449678      Incl.    3.39452     -0.43231241     +0.06125734             
    P   4.30           H   24.37          G   0.15           U   8                  
    Residuals in seconds of arc
    220801 F52 (1.8+  0.1+)   220802 568  0.0   0.0     220803 L01  0.8-  0.0
    220801 F52  0.3-  0.0     220802 568  0.0   0.0     220803 L01  0.0   0.6-
    220801 F52  0.4+  0.0     220802 568  0.0   0.0     220803 I93  0.3+  0.1+
    220801 F52  0.1-  0.0     220803 I93  0.6-  0.4+    220803 H21  0.1+  0.2-
    220802 033  0.3+  0.4-    220803 L01  0.5-  0.0     220803 H21  0.3+  0.1-
    220802 033  0.5+  0.5-    220803 L01  0.1-  0.2-    220803 H21  0.1+  0.0
    220802 033  0.3+  0.5-    220803 I93  0.2+  0.4+    220803 H21  0.2+  0.0
    220802 568  0.0   0.0     220803 L01  0.4+  0.0     220803 H21  0.0   0.1+
    
    Ephemeris:
    2022 PD                  a,e,i = 2.64, 0.64, 3                   q = 0.9383
    Date    TT    R. A. (2000) Decl.     Delta      r    Elong.  Phase     V
    2022 07 04    10 06 24.4 -03 02 58   0.1466  0.9386    54.2   118.5    24.8
    ...
    2022 07 19    08 37 42.0 -01 17 00   0.05529 0.9664    24.9   153.8    27.2
    ...
    2022 07 27    04 19 31.9 +06 52 40   0.03446 0.9991    60.5   117.8    21.7
    ...
    2022 08 02    01 33 58.0 +08 28 16   0.05649 1.0306   104.5    72.4    20.7
    2022 08 03    01 19 41.5 +08 24 03   0.06165 1.0363   108.8    68.0    20.8
    2022 08 04    01 07 36.5 +08 18 39   0.06700 1.0422   112.6    64.0    20.9
    ...
    2022 08 10    00 22 14.7 +07 39 35   0.1014  1.0801   128.8    47.0    21.3
    ...
    2022 08 18    23 52 37.3 +06 44 32   0.1508  1.1367   143.2    32.3    21.9
    ...
    2022 09 02    23 23 57.9 +04 50 08   0.2550  1.2557   163.5    13.2    22.7
    
    M. P. C. Staff               (C) Copyright 2022 MPC           M.P.E.C. 2022-P41
    


    Read MPEC 2022-P40 Read MPEC 2022-P42


    MPEC number:

    Enter an MPEC number in one of the following forms:

    • 1997-B01 (the full form)
    • J97B01 (the packed version of the full form)
    • B01 (the abbreviated form)